Weather in Leeds

United Kingdom     53°48′26″N   1°32′04″W
temp.,
°C
wind,
m/s
gust,
m/s
humid.,
%
clouds,
%
prec.,
mm/h
press.,
hPa
HPBL,
m
18 april, sun
sun1801:00+4se1375100 0.0 1027133
04:00+4se1176100 0.0 102640
07:00+4se1171100 0.0 102669
10:00+8ese1157100 0.0 1026410
13:00+13se114493 0.0 10251163
16:00+14e214160 0.0 10241630
19:00+12ese33485 0.0 1024695
22:00+7se256226 0.0 1025196
19 april, mon
mon1901:00+5ese11705 0.0 102561
04:00+4ese11760 0.0 102422
07:00+4ese11743 0.0 102447
10:00+10se12495 0.0 1023473
13:00+14se23401 0.0 10211178
16:00+15se334116 0.0 10191689
19:00+14se2452100 0.0 1019612
22:00+11se2468100 0.0 1019192
20 april, tue
tue2001:00+10se1373100 0.0 1019128
04:00+9se1171100 0.0 101838
07:00+9wnw0170100 0.0 101834
10:00+11wnw2358100 0.0 1019436
13:00+13nw2252100 0.0 10191204
16:00+12nw4459100 0.2 10191109
19:00+11n346896 0.3 1020650
22:00+9nne3782100 0.1 1022651
21 april, wed
wed2101:00+6nne269095 0.2 1023498
04:00+5n25881 0.0 1024205
07:00+5nne13804 0.0 1025160
10:00+9ne24515 0.0 10261006
13:00+12ne234315 0.0 10251702
16:00+13ne334056 0.0 10251914
19:00+11ene334919 0.0 1025930
22:00+6ese25705 0.0 1027270
22 april, thu
thu2201:00+5sse12754 0.0 1028113
04:00+4s117814 0.0 102729
07:00+5sse1174100 0.0 102866
10:00+10se225424 0.0 1028576
13:00+13se33455 0.0 10271271
16:00+14se444399 0.0 10261475
19:00+12ese45565 0.0 1027915
22:00+6ese38722 0.0 1028311